Flag for Canada Weather past 2 weeks in Steinbach, Manitoba, Canada

Now
8 °F

Frigid.


Feels Like: 8 °F
Forecast: 5 / 18 °F
Wind: 2 mph from Southwest

Location: Winnipeg The Forks

Current Time: Dec 18, 2014 at 7:03:58 AM

Latest Report: Dec 18, 2014 at 6:00 AM


Visibility: N/A

Pressure: 30.32 "Hg

Humidity: 85%

Dew point: 5 °F

Location of SteinbachLocation

Historic Weather in Steinbach — Graph

°F

Steinbach temperature yesterday

Maximum temperature yesterday: 15 °F (at 2:00 PM)
Minimum temperature yesterday: 1 °F (at 7:00 AM)
Average temperature yesterday: 7 °F

Past Weeks' High & Low Weather Summary

 TemperatureHumidityPressure
High35 °F (Dec 13, 8:00 PM)100% (Dec 13, 11:00 AM)30.61 "Hg (Dec 13, 11:00 AM)
Low1 °F (Dec 17, 7:00 AM)62% (Dec 3, 12:00 PM)29.83 "Hg (Dec 12, 6:00 PM)
Average19 °F83%30.16 "Hg
* Reported Dec 3 5:00 AM — Dec 18 5:00 AM, Steinbach, Weather by CustomWeather, © 2014

Note: Actual official high and low records may vary slightly from our data, if they occured in-between our weather recording intervals... More about our weather records

Advertising

Steinbach weather history for previous 24 hours

 ConditionsComfort  
Time TempWeatherWind HumidityBarometerVisibility
5:00 AM
Dec 18
8 °FFrigid.2 mph86%30.33 "HgN/A
4:00 AM8 °FFrigid.2 mph86%30.33 "HgN/A
3:00 AM7 °FFrigid.1 mph87%30.34 "HgN/A
2:00 AM7 °FFrigid.1 mph85%30.34 "HgN/A
1:00 AM8 °FFrigid.2 mph84%30.36 "HgN/A
12:00 AM9 °FFrigid.2 mph84%30.38 "HgN/A
11:00 PM
Dec 17
9 °FFrigid.2 mph85%30.38 "HgN/A
10:00 PM8 °FFrigid.2 mph86%30.37 "HgN/A
9:00 PM10 °FFrigid.1 mph92%30.38 "HgN/A
8:00 PM10 °FFrigid.1 mph90%30.38 "HgN/A
7:00 PM11 °FCold.2 mph82%30.39 "HgN/A
6:00 PM12 °FCold.1 mph78%30.39 "HgN/A
5:00 PM15 °FCold.1 mph69%30.40 "HgN/A
4:00 PM15 °FCold.1 mph70%30.40 "HgN/A
3:00 PM15 °FCold.1 mph71%30.41 "HgN/A
2:00 PM15 °FCold.1 mph69%30.42 "HgN/A
1:00 PM12 °FCold.1 mph77%30.44 "HgN/A
12:00 PM9 °FFrigid.No wind81%30.45 "HgN/A
11:00 AM7 °FFrigid.1 mph84%30.46 "HgN/A
10:00 AM5 °FFrigid.1 mph85%30.46 "HgN/A
9:00 AM2 °FFrigid.2 mph84%30.45 "HgN/A
8:00 AM2 °FFrigid.1 mph84%30.45 "HgN/A
7:00 AM1 °FFrigid.1 mph84%30.45 "HgN/A
Weather by CustomWeather, © 2014

See weather overviewHow to use our weather pages